Change the Weather History Date:

Saturday, January 25, 2014

  Actual Average Record
Temperature  
Mean Temperature 27 °F -  
Max Temperature 38 °F 32 °F 63 °F (1981)
Min Temperature 16 °F 15 °F -8 °F (1961)
Degree Days  
Heating Degree Days 38    
Moisture  
Dew Point 7 °F    
Average Humidity 47    
Maximum Humidity 80    
Minimum Humidity 24    
Precipitation  
Precipitation 0.00 in - - ()
Sea Level Pressure  
Sea Level Pressure 29.81 in    
Wind  
Wind Speed 15 mph (WNW)    
Max Wind Speed 26 mph    
Max Gust Speed 40 mph    
Visibility 10 miles    
Events Rain    
Averages and records for this station are not official NWS values.
T = Trace of Precipitation, MM = Missing Value Source: NWS Daily Summary

Daily Weather History Graph

Daily Weather History Graph

Search for Another Location

Airport or City:

Trip Planner

Search our weather history database for the weather conditions in past years. The results will help you decide how hot, cold, wet, or windy it might be!

Date:

Astronomy

Jan. 25, 2014 Rise Set
Actual Time 7:22 AM CST 5:14 PM CST
Civil Twilight 6:53 AM CST 5:44 PM CST
Nautical Twilight 6:19 AM CST 6:17 PM CST
Astronomical Twilight 5:47 AM CST 6:50 PM CST
Moon 1:54 AM CST (1/25) 12:15 PM CST (1/25)
Length of Visible Light 10h 51m
Length of Day
9h 52m
Waning Crescent, 34% of the Moon is Illuminated
Jan 25
Waning Crescent
Jan 30
New
Feb 6
First Quarter
Feb 14
Full
Feb 22
Last Quarter

Hourly Weather History & Observations

Time (CST) Temp. Windchill Dew Point Humidity Pressure Visibility Wind Dir Wind Speed Gust Speed Precip Events Conditions
12:15 AM 37.0 °F 29.8 °F 21.4 °F 53% 29.57 in 10.0 mi West 10.4 mph - N/A   Overcast
12:35 AM 38.3 °F 30.5 °F 24.6 °F 58% 29.57 in 10.0 mi West 12.7 mph 24.2 mph N/A   Overcast
12:55 AM 37.9 °F 28.5 °F 30.9 °F 76% 29.58 in 10.0 mi West 17.3 mph 25.3 mph N/A Rain Light Rain
1:15 AM 37.8 °F 29.4 °F 32.2 °F 80% 29.58 in 10.0 mi West 13.8 mph 23.0 mph N/A Rain Light Rain
1:35 AM 38.3 °F 29.3 °F 32.4 °F 79% 29.60 in 10.0 mi WNW 16.1 mph 24.2 mph N/A Rain Light Rain
1:55 AM 38.3 °F 28.7 °F 32.0 °F 78% 29.60 in 10.0 mi WNW 18.4 mph 32.2 mph N/A   Overcast
2:35 AM 37.4 °F 27.8 °F 29.8 °F 74% 29.62 in 10.0 mi WNW 17.3 mph 26.5 mph N/A   Mostly Cloudy
2:55 AM 36.7 °F 28.0 °F 27.5 °F 69% 29.63 in 10.0 mi NW 13.8 mph 23.0 mph N/A   Clear
3:15 AM 36.7 °F 28.0 °F 26.4 °F 66% 29.64 in 10.0 mi WNW 13.8 mph 23.0 mph N/A   Scattered Clouds
3:35 AM 36.0 °F 27.5 °F 26.2 °F 68% 29.64 in 10.0 mi WNW 12.7 mph 19.6 mph N/A   Mostly Cloudy
3:55 AM 35.6 °F 27.5 °F 26.2 °F 69% 29.65 in 10.0 mi WNW 11.5 mph 20.7 mph N/A   Scattered Clouds
4:15 AM 34.9 °F 24.6 °F 26.6 °F 72% 29.65 in 10.0 mi WNW 17.3 mph 23.0 mph N/A   Scattered Clouds
4:35 AM 35.1 °F 24.8 °F 26.1 °F 70% 29.65 in 10.0 mi WNW 17.3 mph 23.0 mph N/A   Mostly Cloudy
4:55 AM 34.7 °F 24.7 °F 25.7 °F 70% 29.66 in 10.0 mi WNW 16.1 mph 19.6 mph N/A   Mostly Cloudy
5:15 AM 34.9 °F 25.7 °F 26.2 °F 71% 29.66 in 10.0 mi West 13.8 mph 24.2 mph N/A   Mostly Cloudy
5:35 AM 35.2 °F 24.4 °F 27.0 °F 72% 29.67 in 10.0 mi WNW 19.6 mph 27.6 mph N/A   Overcast
5:55 AM 35.8 °F 25.7 °F 26.6 °F 69% 29.67 in 10.0 mi WNW 17.3 mph 34.5 mph N/A   Overcast
6:15 AM 35.6 °F 24.5 °F 24.8 °F 65% 29.68 in 10.0 mi NW 20.7 mph 29.9 mph N/A   Overcast
6:35 AM 34.7 °F 23.1 °F 24.4 °F 66% 29.70 in 10.0 mi NW 21.9 mph 32.2 mph N/A   Overcast
6:55 AM 32.0 °F 18.4 °F 17.6 °F 55% 29.73 in 10.0 mi WNW 26.5 mph 34.5 mph N/A   Mostly Cloudy
7:15 AM 28.6 °F 16.8 °F 10.6 °F 47% 29.75 in 10.0 mi NW 16.1 mph 31.1 mph N/A   Clear
7:35 AM 27.5 °F 15.4 °F 13.5 °F 56% 29.77 in 10.0 mi WNW 16.1 mph 21.9 mph N/A   Clear
7:55 AM 26.4 °F 11.5 °F -2.7 °F 28% 29.79 in 10.0 mi NW 24.2 mph 40.3 mph N/A   Clear
8:15 AM 24.8 °F 9.3 °F -7.2 °F 24% 29.80 in 10.0 mi NW 24.2 mph 35.7 mph N/A   Clear
8:35 AM 23.7 °F 7.2 °F -4.4 °F 29% 29.81 in 10.0 mi NW 26.5 mph 33.4 mph N/A   Clear
8:55 AM 22.6 °F 9.2 °F -0.6 °F 36% 29.83 in 10.0 mi NW 16.1 mph 29.9 mph N/A   Clear
9:15 AM 23.0 °F 10.1 °F 2.3 °F 41% 29.84 in 10.0 mi NW 15.0 mph 24.2 mph N/A   Clear
9:35 AM 21.9 °F 6.9 °F 0.7 °F 40% 29.85 in 10.0 mi NW 19.6 mph 32.2 mph N/A   Clear
9:55 AM 22.6 °F 8.7 °F 2.1 °F 41% 29.86 in 10.0 mi NW 17.3 mph 33.4 mph N/A   Clear
10:15 AM 23.0 °F 8.0 °F 1.2 °F 39% 29.87 in 10.0 mi WNW 20.7 mph 28.8 mph N/A   Clear
10:35 AM 20.8 °F 3.7 °F -6.0 °F 31% 29.89 in 10.0 mi NW 25.3 mph 34.5 mph N/A   Clear
10:55 AM 21.7 °F 6.7 °F -1.7 °F 36% 29.90 in 10.0 mi NW 19.6 mph 27.6 mph N/A   Clear
11:15 AM 22.3 °F 7.4 °F -2.6 °F 34% 29.90 in 10.0 mi WNW 19.6 mph 31.1 mph N/A   Clear
11:35 AM 22.3 °F 7.8 °F -4.0 °F 32% 29.91 in 10.0 mi NW 18.4 mph 27.6 mph N/A   Clear
11:55 AM 22.1 °F 5.1 °F -4.2 °F 32% 29.90 in 10.0 mi WNW 26.5 mph 33.4 mph N/A   Clear
12:15 PM 21.7 °F 6.3 °F -7.2 °F 28% 29.91 in 10.0 mi NW 20.7 mph 32.2 mph N/A   Clear
12:35 PM 21.9 °F 5.1 °F -6.0 °F 29% 29.91 in 10.0 mi WNW 25.3 mph 34.5 mph N/A   Clear
12:55 PM 22.3 °F 7.8 °F -4.2 °F 31% 29.91 in 10.0 mi WNW 18.4 mph 27.6 mph N/A   Clear
1:15 PM 22.5 °F 8.5 °F -4.4 °F 31% 29.90 in 10.0 mi NW 17.3 mph 28.8 mph N/A   Clear
1:35 PM 22.8 °F 8.5 °F -4.2 °F 31% 29.91 in 10.0 mi NW 18.4 mph 26.5 mph N/A   Clear
1:55 PM 22.8 °F 8.1 °F -4.5 °F 30% 29.92 in 10.0 mi WNW 19.6 mph 25.3 mph N/A   Clear
2:15 PM 22.8 °F 7.0 °F -2.7 °F 33% 29.92 in 10.0 mi WNW 23.0 mph 29.9 mph N/A   Clear
2:35 PM 22.1 °F 7.6 °F -4.7 °F 31% 29.93 in 10.0 mi WNW 18.4 mph 32.2 mph N/A   Clear
2:55 PM 22.3 °F 8.7 °F -4.5 °F 31% 29.94 in 10.0 mi WNW 16.1 mph 29.9 mph N/A   Clear
3:15 PM 22.8 °F 7.0 °F -4.9 °F 30% 29.95 in 10.0 mi West 23.0 mph 29.9 mph N/A   Clear
3:35 PM 23.0 °F 9.6 °F -2.9 °F 32% 29.95 in 10.0 mi WNW 16.1 mph 21.9 mph N/A   Clear
3:55 PM 22.6 °F 8.3 °F -6.7 °F 27% 29.94 in 10.0 mi WNW 18.4 mph 28.8 mph N/A   Clear
4:15 PM 22.3 °F 10.2 °F -6.0 °F 29% 29.95 in 10.0 mi WNW 12.7 mph 24.2 mph N/A   Clear
4:35 PM 22.1 °F 8.9 °F -6.2 °F 29% 29.95 in 10.0 mi WNW 15.0 mph 19.6 mph N/A   Clear
4:55 PM 21.9 °F 11.0 °F -6.7 °F 28% 29.95 in 10.0 mi WNW 10.4 mph - N/A   Clear
5:15 PM 20.8 °F 11.2 °F -5.6 °F 31% 29.95 in 10.0 mi WNW 8.1 mph - N/A   Clear
5:35 PM 19.9 °F 12.1 °F -4.5 °F 34% 29.95 in 10.0 mi WNW 5.8 mph - N/A   Clear
5:55 PM 19.4 °F 14.3 °F -3.6 °F 36% 29.95 in 10.0 mi NW 3.5 mph - N/A   Clear
6:15 PM 18.3 °F 13.1 °F -2.4 °F 40% 29.95 in 10.0 mi NW 3.5 mph - N/A   Clear
6:35 PM 18.3 °F 13.1 °F -2.0 °F 41% 29.94 in 10.0 mi WNW 3.5 mph - N/A   Clear
6:55 PM 18.1 °F - -1.7 °F 42% 29.95 in 10.0 mi Calm Calm - N/A   Clear
7:15 PM 17.2 °F 11.9 °F 1.6 °F 50% 29.94 in 10.0 mi WSW 3.5 mph - N/A   Clear
7:35 PM 17.1 °F - 1.0 °F 50% 29.94 in 10.0 mi Calm Calm - N/A   Clear
7:55 PM 16.7 °F - 1.2 °F 51% 29.93 in 10.0 mi Calm Calm - N/A   Clear
8:15 PM 17.6 °F - 3.4 °F 54% 29.91 in 10.0 mi Calm Calm - N/A   Clear
9:15 PM 18.9 °F 12.1 °F 3.9 °F 52% 29.87 in 10.0 mi SSE 4.6 mph - N/A   Mostly Cloudy
9:35 PM 19.2 °F 12.5 °F 3.9 °F 51% 29.85 in 10.0 mi SE 4.6 mph - N/A   Overcast
9:55 PM 19.4 °F 11.5 °F 4.1 °F 52% 29.83 in 10.0 mi SSE 5.8 mph - N/A   Overcast
10:15 PM 19.9 °F 13.4 °F 3.4 °F 49% 29.82 in 10.0 mi SE 4.6 mph - N/A   Overcast
10:35 PM 20.1 °F 10.3 °F 3.2 °F 48% 29.81 in 10.0 mi SSE 8.1 mph - N/A   Overcast
10:55 PM 20.3 °F 9.8 °F 3.6 °F 48% 29.80 in 10.0 mi SSE 9.2 mph - N/A   Overcast
11:15 PM 20.3 °F 9.0 °F 4.6 °F 51% 29.77 in 10.0 mi SE 10.4 mph - N/A   Overcast
11:35 PM 21.0 °F 10.6 °F 3.4 °F 47% 29.76 in 10.0 mi SSE 9.2 mph - N/A   Overcast
11:55 PM 21.2 °F 8.9 °F 3.0 °F 46% 29.73 in 10.0 mi SSE 12.7 mph - N/A   Overcast